Dubuque, IA

7:00 PM CDT on April 29, 2017 (GMT -0500)
Dubuque Regional

Weather History for KDBQ - June, 2013

Change the Weather History Date:

Monday, June 24, 2013

  Actual Average Record
Temperature  
Mean Temperature 68 °F 71 °F  
Max Temperature 70 °F 81 °F 99 °F (1931)
Min Temperature 65 °F 61 °F 45 °F (1887)
Degree Days  
Heating Degree Days 0 1  
Month to date heating degree days 39 39  
Since 1 June heating degree days 39 39  
Since 1 July heating degree days 7296 7085  
Cooling Degree Days 3 6  
Month to date cooling degree days 75 100  
Year to date cooling degree days 120 137  
Since 1 June cooling degree days 75 100  
Growing Degree Days 17 (Base 50)    
Moisture  
Dew Point 66 °F    
Average Humidity 92    
Maximum Humidity 100    
Minimum Humidity 84    
Precipitation  
Precipitation 0.15 in 0.15 in 2.41 in (1968)
Month to date precipitation 2.84 3.56  
Year to date precipitation 24.42 16.43  
Snow  
Snow 0.00 in 0.00 in - ()
Month to date snowfall 0.0 0.0  
Since 1 June snowfall 0.0 0.0  
Since 1 July snowfall 54.5 41.9  
Snow Depth 0.00 in    
Sea Level Pressure  
Sea Level Pressure 29.96 in    
Wind  
Wind Speed 11 mph (SSW)    
Max Wind Speed 29 mph    
Max Gust Speed 35 mph    
Visibility 9 miles    
Events Rain , Thunderstorm    
T = Trace of Precipitation, MM = Missing Value Source: NWS Daily Summary

Daily Weather History Graph

Daily Weather History Graph

Search for Another Location

Airport or City:

Trip Planner

Search our weather history database for the weather conditions in past years. The results will help you decide how hot, cold, wet, or windy it might be!

Date:

Astronomy

Jun. 24, 2013 Rise Set
Actual Time 5:26 AM CDT 8:43 PM CDT
Civil Twilight 4:51 AM CDT 9:18 PM CDT
Nautical Twilight 4:06 AM CDT 10:03 PM CDT
Astronomical Twilight 3:11 AM CDT 10:58 PM CDT
Moon 9:43 PM CDT (6/24) 6:56 AM CDT (6/24)
Length of Visible Light 16h 26m
Length of Day
15h 17m
Full, 98% of the Moon is Illuminated
Jun 24
Full
Jun 29
Last Quarter
Jul 8
New
Jul 15
First Quarter
Jul 22
Full

Hourly Weather History & Observations

Time (CDT) Temp. Dew Point Humidity Pressure Visibility Wind Dir Wind Speed Gust Speed Precip Events Conditions
12:53 AM 70.0 °F 68.0 °F 93% 29.96 in 10.0 mi SSW 8.1 mph - N/A   Overcast
1:53 AM 70.0 °F 68.0 °F 93% 29.95 in 10.0 mi SSW 8.1 mph - N/A   Mostly Cloudy
2:53 AM 70.0 °F 66.9 °F 90% 29.96 in 10.0 mi SSW 9.2 mph - N/A   Scattered Clouds
3:10 AM 69.8 °F 66.2 °F 88% 29.99 in 10.0 mi SSW 13.8 mph - N/A Thunderstorm Mostly Cloudy
3:42 AM 69.8 °F 66.2 °F 88% 29.95 in 10.0 mi WSW 11.5 mph - 0.00 in   Overcast
3:53 AM 69.1 °F 66.9 °F 93% 29.94 in 10.0 mi SSW 11.5 mph - 0.00 in   Overcast
4:12 AM 68.0 °F 66.2 °F 94% 29.96 in 10.0 mi SSW 11.5 mph - N/A Thunderstorm Overcast
4:25 AM 68.0 °F 64.4 °F 88% 29.94 in 10.0 mi SW 11.5 mph - N/A Thunderstorm Mostly Cloudy
4:53 AM 68.0 °F 66.0 °F 93% 29.92 in 10.0 mi WSW 12.7 mph - 0.00 in Rain , Thunderstorm Light Rain
5:37 AM 66.2 °F 64.4 °F 94% 29.98 in 10.0 mi SSW 8.1 mph 21.9 mph 0.01 in Rain , Thunderstorm Light Thunderstorms and Rain
5:53 AM 66.9 °F 64.9 °F 93% 29.97 in 10.0 mi WSW 9.2 mph - 0.02 in Rain Light Rain
6:02 AM 66.2 °F 64.4 °F 94% 29.98 in 10.0 mi WSW 6.9 mph - 0.00 in Rain , Thunderstorm Light Thunderstorms and Rain
6:53 AM 66.9 °F 66.0 °F 97% 29.97 in 10.0 mi South 9.2 mph - 0.00 in Thunderstorm Mostly Cloudy
7:07 AM 66.2 °F 66.2 °F 100% 29.99 in 10.0 mi SSE 12.7 mph - N/A   Scattered Clouds
7:53 AM 66.0 °F 66.0 °F 100% 30.01 in 10.0 mi South 13.8 mph - N/A   Partly Cloudy
8:20 AM 66.2 °F 66.2 °F 100% 30.04 in 7.0 mi South 17.3 mph - 0.00 in Rain Light Rain
8:49 AM 64.4 °F 64.4 °F 100% 29.99 in 5.0 mi SSE 26.5 mph 34.5 mph 0.03 in Rain , Thunderstorm Light Thunderstorms and Rain
8:53 AM 64.9 °F 64.9 °F 100% 29.96 in 5.0 mi SSE 24.2 mph 34.5 mph 0.03 in Rain , Thunderstorm Light Thunderstorms and Rain
8:59 AM 64.4 °F 64.4 °F 100% 29.97 in 6.0 mi SE 20.7 mph 34.5 mph 0.00 in Rain , Thunderstorm Light Thunderstorms and Rain
9:26 AM 66.2 °F 64.4 °F 94% 30.01 in 10.0 mi WSW 21.9 mph 32.2 mph 0.02 in   Mostly Cloudy
9:43 AM 66.2 °F 64.4 °F 94% 30.02 in 10.0 mi SSW 15.0 mph 23.0 mph 0.02 in   Scattered Clouds
9:53 AM 66.9 °F 64.9 °F 93% 30.02 in 10.0 mi SW 12.7 mph - 0.02 in   Scattered Clouds
10:53 AM 66.9 °F 64.9 °F 93% 30.00 in 10.0 mi South 5.8 mph - N/A   Clear
11:53 AM 69.1 °F 64.9 °F 87% 30.00 in 10.0 mi SSW 13.8 mph - N/A   Clear
12:53 PM 69.1 °F 66.0 °F 90% 30.01 in 10.0 mi SW 10.4 mph - N/A   Clear
1:53 PM 68.0 °F 66.9 °F 96% 29.94 in 10.0 mi South 8.1 mph - 0.00 in   Mostly Cloudy
2:53 PM 70.0 °F 66.9 °F 90% 29.91 in 10.0 mi SSW 12.7 mph 24.2 mph N/A   Clear
3:53 PM 69.1 °F 66.9 °F 93% 29.98 in 10.0 mi WNW 11.5 mph - N/A   Mostly Cloudy
4:03 PM 69.8 °F 66.2 °F 88% 29.98 in 10.0 mi West 8.1 mph 16.1 mph 0.00 in Rain , Thunderstorm Light Thunderstorms and Rain
4:33 PM 68.0 °F 66.2 °F 94% 29.96 in 6.0 mi WNW 10.4 mph 20.7 mph 0.03 in Rain , Thunderstorm Light Thunderstorms and Rain
4:42 PM 66.2 °F 66.2 °F 100% 29.95 in 10.0 mi WNW 10.4 mph - 0.03 in Rain , Thunderstorm Light Thunderstorms and Rain
4:53 PM 66.9 °F 66.0 °F 97% 29.93 in 6.0 mi NW 8.1 mph - 0.04 in Rain , Thunderstorm Thunderstorms and Rain
5:53 PM 66.0 °F 64.9 °F 96% 29.88 in 10.0 mi South 9.2 mph - 0.04 in   Clear
6:53 PM 66.9 °F 66.0 °F 97% 29.87 in 10.0 mi South 6.9 mph - N/A   Clear
7:53 PM 66.9 °F 66.0 °F 97% 29.88 in 10.0 mi South 6.9 mph - N/A   Clear
8:53 PM - - N/A% 29.89 in - North - - N/A   Unknown
9:53 PM - - N/A% 29.91 in - North - - N/A   Unknown
10:53 PM - - N/A% 29.90 in - North - - N/A   Unknown
11:53 PM - - N/A% 29.88 in - North - - N/A   Unknown